Regional Weather Roundup
Issued by NWS Goodland, KS

Home | Current Version | Previous Version | Text Only | Print | Product List | Glossary Off
Versions: 1 2 3 4 5 6 7 8 9 10 11 12 13 14 15 16 17 18 19 20 21 22 23 24 25 26 27 28 29 30 31 32 33 34 35 36 37 38 39 40 41 42 43 44 45 46 47 48 49 50

000
ASUS43 KGLD 210959
RWRGLD

GOODLAND FORECAST AREA HOURLY WEATHER ROUNDUP
NATIONAL WEATHER SERVICE GOODLAND KS
300 AM MST FRI NOV 21 2014

...OFFICIAL OBSERVATIONS...

CITY           SKY/WX    TMP DP  RH WIND       PRES   REMARKS
GOODLAND KS    CLOUDY    36  28  73 S18       30.00F
HILL CITY KS   MOCLDY    24  18  77 E5        30.10F
IMPERIAL NEB   CLOUDY    30  22  72 SE3       30.00F
MCCOOK NEB     MOCLDY    20  16  84 E5        30.05F
AKRON CO       MOCLDY    35  23  61 SW10      29.95S
BURLINGTON CO  CLOUDY    35  26  69 S12       30.00S
LIMON CO       MOCLDY    22  19  89 CALM      29.98S
$$

...UNOFFICIAL OBSERVATIONS...

CITY           SKY/WX    TMP DP  RH WIND       PRES   REMARKS
COLBY KS       CLOUDY    36  30  80 S10       30.04F
GOVE KS          N/A     26  32 100 MISG        N/A
NORTON KS      CLEAR     23  16  74 SE5       30.08S
SHARON SPRINGS   N/A     32  27  82 S10         N/A
TRENTON NEB      N/A     25  32 100 SE6         N/A
YUMA CO          N/A     32  22  66 CALM        N/A
$$


USA.gov is the U.S. government's official web portal to all federal, state and local government web resources and services.